linux/drivers/watchdog/
<<
>>
Prefs
Kconfig 63141 2017-11-24 07:37:05
Makefile 8051 2017-11-24 07:37:05
acquirewdt.c 8692 2017-11-24 07:37:05
advantechwdt.c 7983 2017-11-24 07:37:05
alim1535_wdt.c 10135 2017-11-24 07:37:05
alim7101_wdt.c 11167 2017-11-24 07:37:05
ar7_wdt.c 7879 2017-11-24 07:37:05
asm9260_wdt.c 9069 2017-11-24 07:37:05
aspeed_wdt.c 8738 2017-11-24 07:37:05
at32ap700x_wdt.c 9841 2017-11-24 07:37:05
at91rm9200_wdt.c 8064 2017-11-24 07:37:05
at91sam9_wdt.c 10960 2017-11-24 07:37:05
at91sam9_wdt.h 1530 2017-11-24 07:37:05
ath79_wdt.c 7593 2017-11-24 07:37:05
atlas7_wdt.c 5981 2017-11-24 07:37:05
bcm2835_wdt.c 7129 2017-11-24 07:37:05
bcm47xx_wdt.c 6133 2017-11-24 07:37:05
bcm63xx_wdt.c 7136 2017-11-24 07:37:05
bcm7038_wdt.c 5906 2017-11-24 07:37:05
bcm_kona_wdt.c 9628 2017-11-24 07:37:05
bfin_wdt.c 10356 2017-11-24 07:37:05
booke_wdt.c 5993 2017-11-24 07:37:05
cadence_wdt.c 13204 2017-11-24 07:37:05
coh901327_wdt.c 12192 2017-11-24 07:37:05
cpu5wdt.c 6802 2017-11-24 07:37:05
cpwd.c 16172 2017-11-24 07:37:05
da9052_wdt.c 5051 2017-11-24 07:37:05
da9055_wdt.c 4360 2017-11-24 07:37:05
da9062_wdt.c 6399 2017-11-24 07:37:05
da9063_wdt.c 4985 2017-11-24 07:37:05
davinci_wdt.c 6733 2017-11-24 07:37:05
diag288_wdt.c 7659 2017-11-24 07:37:05
digicolor_wdt.c 4265 2017-11-24 07:37:05
dw_wdt.c 8185 2017-11-24 07:37:05
ebc-c384_wdt.c 4082 2017-11-24 07:37:05
ep93xx_wdt.c 3773 2017-11-24 07:37:05
eurotechwdt.c 10947 2017-11-24 07:37:05
f71808e_wdt.c 22334 2017-11-24 07:37:05
gef_wdt.c 7672 2017-11-24 07:37:05
gemini_wdt.c 5339 2017-11-24 07:37:05
geodewdt.c 6603 2017-11-24 07:37:05
gpio_wdt.c 4906 2017-11-24 07:37:05
hpwdt.c 22343 2017-11-24 07:37:05
i6300esb.c 12672 2017-11-24 07:37:05
iTCO_vendor.h 719 2017-11-24 07:37:05
iTCO_vendor_support.c 11089 2017-11-24 07:37:05
iTCO_wdt.c 18045 2017-11-24 07:37:05
ib700wdt.c 8519 2017-11-24 07:37:05
ibmasr.c 9628 2017-11-24 07:37:05
ie6xx_wdt.c 8769 2017-11-24 07:37:05
imgpdc_wdt.c 9608 2017-11-24 07:37:05
imx2_wdt.c 12196 2017-11-24 07:37:05
indydog.c 4703 2017-11-24 07:37:05
intel-mid_wdt.c 4670 2017-11-24 07:37:05
intel_scu_watchdog.c 15396 2017-11-24 07:37:05
intel_scu_watchdog.h 2053 2017-11-24 07:37:05
iop_wdt.c 6030 2017-11-24 07:37:05
it8712f_wdt.c 10199 2017-11-24 07:37:05
it87_wdt.c 7893 2017-11-24 07:37:05
ixp4xx_wdt.c 4680 2017-11-24 07:37:05
jz4740_wdt.c 6365 2017-11-24 07:37:05
kempld_wdt.c 14969 2017-11-24 07:37:05
ks8695_wdt.c 7838 2017-11-24 07:37:05
lantiq_wdt.c 7513 2017-11-24 07:37:05
loongson1_wdt.c 4114 2017-11-24 07:37:05
lpc18xx_wdt.c 9313 2017-11-24 07:37:05
m54xx_wdt.c 5130 2017-11-24 07:37:05
machzwd.c 10054 2017-11-24 07:37:05
max63xx_wdt.c 7154 2017-11-24 07:37:05
max77620_wdt.c 5531 2017-11-24 07:37:05
mei_wdt.c 15648 2017-11-24 07:37:05
mena21_wdt.c 5669 2017-11-24 07:37:05
menf21bmc_wdt.c 5492 2017-11-24 07:37:05
meson_gxbb_wdt.c 8132 2017-11-24 07:37:05
meson_wdt.c 6325 2017-11-24 07:37:05
mixcomwd.c 7428 2017-11-24 07:37:05
moxart_wdt.c 4566 2017-11-24 07:37:05
mpc8xxx_wdt.c 6994 2017-11-24 07:37:05
mt7621_wdt.c 4312 2017-11-24 07:37:05
mtk_wdt.c 6862 2017-11-24 07:37:05
mtx-1_wdt.c 6368 2017-11-24 07:37:05
mv64x60_wdt.c 7825 2017-11-24 07:37:05
ni903x_wdt.c 6899 2017-11-24 07:37:05
nic7018_wdt.c 6339 2017-11-24 07:37:05
nuc900_wdt.c 7310 2017-11-24 07:37:05
nv_tco.c 12493 2017-11-24 07:37:05
nv_tco.h 2062 2017-11-24 07:37:05
octeon-wdt-main.c 16868 2017-11-24 07:37:05
octeon-wdt-nmi.S 2042 2021-08-29 15:04:50 -0700
of_xilinx_wdt.c 8234 2017-11-24 07:37:05
omap_wdt.c 9788 2017-11-24 07:37:05
omap_wdt.h 2300 2017-11-24 07:37:05
orion_wdt.c 17000 2017-11-24 07:37:05
pc87413_wdt.c 14375 2017-11-24 07:37:05
pcwd.c 26527 2017-11-24 07:37:05
pcwd_pci.c 20378 2017-11-24 07:37:05
pcwd_usb.c 21656 2017-11-24 07:37:05
pic32-dmt.c 5743 2017-11-24 07:37:05
pic32-wdt.c 6240 2017-11-24 07:37:05
pika_wdt.c 6894 2017-11-24 07:37:05
pnx4008_wdt.c 7267 2017-11-24 07:37:05
pnx833x_wdt.c 7250 2017-11-24 07:37:05
pretimeout_noop.c 1270 2017-11-24 07:37:05
pretimeout_panic.c 1252 2017-11-24 07:37:05
qcom-wdt.c 6550 2017-11-24 07:37:05
rc32434_wdt.c 8324 2017-11-24 07:37:05
rdc321x_wdt.c 7328 2017-11-24 07:37:05
renesas_wdt.c 5891 2017-11-24 07:37:05
retu_wdt.c 4630 2017-11-24 07:37:05
riowd.c 5716 2017-11-24 07:37:05
rn5t618_wdt.c 5299 2017-11-24 07:37:05
rt2880_wdt.c 5061 2017-11-24 07:37:05
rza_wdt.c 4909 2017-11-24 07:37:05
s3c2410_wdt.c 19667 2017-11-24 07:37:05
sa1100_wdt.c 5234 2017-11-24 07:37:05
sama5d4_wdt.c 7981 2017-11-24 07:37:05
sb_wdog.c 8737 2017-11-24 07:37:05
sbc60xxwdt.c 10352 2017-11-24 07:37:05
sbc7240_wdt.c 7049 2017-11-24 07:37:05
sbc8360.c 10039 2017-11-24 07:37:05
sbc_epx_c3.c 5119 2017-11-24 07:37:05
sbc_fitpc2_wdt.c 5377 2017-11-24 07:37:05
sbsa_gwdt.c 11258 2017-11-24 07:37:05
sc1200wdt.c 11405 2017-11-24 07:37:05
sc520_wdt.c 11080 2017-11-24 07:37:05
sch311x_wdt.c 13801 2017-11-24 07:37:05
scx200_wdt.c 6599 2017-11-24 07:37:05
shwdt.c 9322 2017-11-24 07:37:05
sirfsoc_wdt.c 5825 2017-11-24 07:37:05
smsc37b787_wdt.c 15474 2017-11-24 07:37:05
softdog.c 4654 2017-11-24 07:37:05
sp5100_tco.c 15328 2017-11-24 07:37:05
sp5100_tco.h 1771 2017-11-24 07:37:05
sp805_wdt.c 7318 2017-11-24 07:37:05
st_lpc_wdt.c 7474 2017-11-24 07:37:05
stm32_iwdg.c 6397 2017-11-24 07:37:05
stmp3xxx_rtc_wdt.c 4121 2017-11-24 07:37:05
sun4v_wdt.c 4600 2017-11-24 07:37:05
sunxi_wdt.c 8000 2017-11-24 07:37:05
tangox_wdt.c 5226 2017-11-24 07:37:05
tegra_wdt.c 7872 2017-11-24 07:37:05
ts4800_wdt.c 5352 2017-11-24 07:37:05
ts72xx_wdt.c 4415 2017-11-24 07:37:05
twl4030_wdt.c 3873 2017-11-24 07:37:05
txx9wdt.c 4683 2017-11-24 07:37:05
uniphier_wdt.c 6888 2017-11-24 07:37:05
ux500_wdt.c 4104 2017-11-24 07:37:05
via_wdt.c 7638 2017-11-24 07:37:05
w83627hf_wdt.c 10868 2017-11-24 07:37:05
w83877f_wdt.c 10171 2017-11-24 07:37:05
w83977f_wdt.c 12093 2017-11-24 07:37:05
wafer5823wdt.c 7256 2017-11-24 07:37:05
watchdog_core.c 11342 2017-11-24 07:37:05
watchdog_core.h 1330 2017-11-24 07:37:05
watchdog_dev.c 28514 2017-11-24 07:37:05
watchdog_pretimeout.c 4804 2017-11-24 07:37:05
watchdog_pretimeout.h 1684 2021-08-29 15:04:50 -0700
wd501p.h 1598 2017-11-24 07:37:05
wdat_wdt.c 13007 2017-11-24 07:37:05
wdrtas.c 15626 2017-11-24 07:37:05
wdt.c 15849 2017-11-24 07:37:05
wdt285.c 4856 2017-11-24 07:37:05
wdt977.c 12079 2017-11-24 07:37:05
wdt_pci.c 17668 2017-11-24 07:37:05
wm831x_wdt.c 7255 2017-11-24 07:37:05
wm8350_wdt.c 4240 2017-11-24 07:37:05
xen_wdt.c 7630 2017-11-24 07:37:05
ziirave_wdt.c 19780 2017-11-24 07:37:05
zx2967_wdt.c 7184 2017-11-24 07:37:05